Location: Montreal
(45.5087°N, 73.5540°W)
Time: 17:22:47
(UTC-04:00)

Envisat - Pass Details

Date: 09 February 2023
Orbit: 763 x 765 km, 98.2° (Epoch: 20 March)

Event Time Altitude Azimuth Distance (km) Brightness Sun altitude
Rises 03:39:10 0° 18° (NNE) 3,242 6.6 -36.3°
Reaches altitude 10° 03:41:33 10° 23° (NNE) 2,311 5.9 -35.9°
Enters shadow 03:43:42 25° 34° (NE) 1,533 4.9 -35.5°
